DAL1123 KLAS-KATL

Flight info

Callsign DAL1123
Flight time N/A
Altitude 37000
Route NIITZ4 SSKEE GUP J72 ABQ J6 IRW J14 LIT J66 DEVAC RUSSA GLAVN2
Aircraft A339/H-SADE1E2E3GHIJ3J5M1P2RWXY/LB2D1

Departure

Time 2026-05-06 18:38
Airport Harry Reid International Airport (KLAS)

Arrival

Time N/A
Airport Hartsfield Jackson Atlanta International Airport (KATL)
Time Latitude Longitude Altitude Speed Heading
2026-05-06 17:49 36.08045 -115.13880 2194 ft 0 kts 345°
2026-05-06 18:25 36.08027 -115.13874 2196 ft 4 kts 328°
2026-05-06 18:25 36.08007 -115.13857 2193 ft 4 kts 296°
2026-05-06 18:26 36.07998 -115.13828 2193 ft 4 kts 272°
2026-05-06 18:26 36.07998 -115.13810 2193 ft 4 kts 266°
2026-05-06 18:26 36.07991 -115.13828 2193 ft 4 kts 247°
2026-05-06 18:26 36.07968 -115.13861 2197 ft 4 kts 225°
2026-05-06 18:27 36.07948 -115.13882 2198 ft 4 kts 220°
2026-05-06 18:27 36.07933 -115.13897 2194 ft 0 kts 219°
2026-05-06 18:31 36.07923 -115.13907 2195 ft 6 kts 219°
2026-05-06 18:32 36.07869 -115.13960 2194 ft 12 kts 215°
2026-05-06 18:32 36.07833 -115.13945 2195 ft 3 kts 110°
2026-05-06 18:32 36.07835 -115.13913 2194 ft 4 kts 85°
2026-05-06 18:32 36.07834 -115.13868 2196 ft 7 kts 94°
2026-05-06 18:33 36.07830 -115.13785 2194 ft 11 kts 94°
2026-05-06 18:33 36.07828 -115.13683 2198 ft 12 kts 91°
2026-05-06 18:33 36.07827 -115.13571 2198 ft 14 kts 90°
2026-05-06 18:33 36.07828 -115.13444 2198 ft 16 kts 89°
2026-05-06 18:34 36.07828 -115.13287 2198 ft 19 kts 90°
2026-05-06 18:34 36.07829 -115.13123 2198 ft 20 kts 90°
2026-05-06 18:34 36.07829 -115.12954 2194 ft 20 kts 90°
2026-05-06 18:34 36.07829 -115.12782 2194 ft 20 kts 90°
2026-05-06 18:35 36.07830 -115.12609 2193 ft 20 kts 89°
2026-05-06 18:35 36.07831 -115.12433 2194 ft 20 kts 90°
2026-05-06 18:35 36.07829 -115.12304 2194 ft 11 kts 91°
2026-05-06 18:35 36.07797 -115.12217 2196 ft 12 kts 123°
2026-05-06 18:36 36.07752 -115.12146 2195 ft 4 kts 134°
2026-05-06 18:36 36.07751 -115.12145 2198 ft 0 kts 135°
2026-05-06 18:36 36.07750 -115.12144 2198 ft 1 kts 135°
2026-05-06 18:37 36.07725 -115.12128 2196 ft 8 kts 156°
2026-05-06 18:37 36.07658 -115.12126 2197 ft 9 kts 194°
2026-05-06 18:37 36.07641 -115.12182 2198 ft 7 kts 260°
2026-05-06 18:37 36.07641 -115.12381 2198 ft 60 kts 271°
2026-05-06 18:38 36.07641 -115.13286 2199 ft 146 kts 270°
2026-05-06 18:38 36.07647 -115.14806 2316 ft 197 kts 270°
2026-05-06 18:38 36.07645 -115.16435 3092 ft 204 kts 271°
2026-05-06 18:38 36.07654 -115.18198 3901 ft 207 kts 270°
2026-05-06 18:39 36.07683 -115.20061 4494 ft 224 kts 272°
2026-05-06 18:39 36.07488 -115.22026 4941 ft 244 kts 258°
2026-05-06 18:39 36.07084 -115.24160 5429 ft 260 kts 251°
2026-05-06 18:40 36.04554 -115.27107 7043 ft 262 kts 203°
2026-05-06 18:40 36.02798 -115.27926 7390 ft 283 kts 199°
2026-05-06 18:40 36.00875 -115.28670 7841 ft 292 kts 191°
2026-05-06 18:40 35.98850 -115.28620 8225 ft 294 kts 166°
2026-05-06 18:41 35.96993 -115.27565 8609 ft 294 kts 142°
2026-05-06 18:41 35.95469 -115.25899 8995 ft 296 kts 132°
2026-05-06 18:41 35.94037 -115.24061 9377 ft 298 kts 130°
2026-05-06 18:41 35.92573 -115.22217 9779 ft 300 kts 132°
2026-05-06 18:42 35.91216 -115.20301 10138 ft 301 kts 123°
2026-05-06 18:42 35.90067 -115.18050 10508 ft 316 kts 116°
2026-05-06 18:42 35.88944 -115.15633 10867 ft 333 kts 117°
2026-05-06 18:42 35.87776 -115.13138 11234 ft 345 kts 115°
2026-05-06 18:43 35.86950 -115.10362 11600 ft 343 kts 99°
2026-05-06 18:43 35.86745 -115.07442 11987 ft 340 kts 84°
2026-05-06 18:43 35.86936 -115.04525 12361 ft 340 kts 82°
2026-05-06 18:43 35.87118 -115.01772 12725 ft 342 kts 82°
2026-05-06 18:44 35.87297 -114.98800 13073 ft 344 kts 83°
2026-05-06 18:44 35.87458 -114.95889 13462 ft 346 kts 83°
2026-05-06 18:44 35.87616 -114.92925 13853 ft 347 kts 83°
2026-05-06 18:44 35.87775 -114.89930 14210 ft 349 kts 83°
2026-05-06 18:45 35.87934 -114.86922 14565 ft 350 kts 83°
2026-05-06 18:45 35.88091 -114.83951 14927 ft 352 kts 83°
2026-05-06 18:45 35.88249 -114.80923 15281 ft 353 kts 83°
2026-05-06 18:45 35.88407 -114.77907 15641 ft 355 kts 83°
2026-05-06 18:46 35.88567 -114.74856 16018 ft 357 kts 83°
2026-05-06 18:46 35.88726 -114.71836 16382 ft 359 kts 83°